This is the latest recevied weather packets stored in our database for station/object KE5JQA-1. If no packets are shown the sender has not sent any weather packets the latest 10 day(s).
| Time | Temp. | Humidity | Pressure | Rain* | Wind** | Luminosity | Snow |
|---|---|---|---|---|---|---|---|
| 1777243216 | 30° C | 51% | 1008.1 hPa | 0 mm | - | - | - |
| 1777242637 | 30° C | 51% | 1008 hPa | 0 mm | - | - | - |
| 1777241436 | 30° C | 50% | 1008 hPa | 0 mm | - | - | - |
| 1777238736 | 30.56° C | 48% | 1008.3 hPa | 0 mm | - | - | - |
| 1777238118 | 30.56° C | 48% | 1008.2 hPa | 0 mm | - | - | - |
| 1777231818 | 31.11° C | 47% | 1009.3 hPa | 0 mm | - | - | - |
| 1777228238 | 30° C | 49% | 1010.4 hPa | 0 mm | - | - | - |
| 1777227018 | 29.44° C | 51% | 1010.6 hPa | 0 mm | - | - | - |
| 1777226417 | 29.44° C | 49% | 1010.9 hPa | 0 mm | - | - | - |
| 1777225517 | 28.89° C | 49% | 1011.2 hPa | 0 mm | - | - | - |
| 1777223417 | 27.78° C | 49% | 1011.6 hPa | 0 mm | - | - | - |
| 1777220717 | 27.22° C | 47% | 1011.7 hPa | 0 mm | - | - | - |
| 1777218317 | 26.67° C | 43% | 1011.5 hPa | 0 mm | - | - | - |
| 1777215338 | 25° C | 36% | 1011.5 hPa | 0 mm | - | - | - |
| 1777215018 | 24.44° C | 36% | 1011.4 hPa | 0 mm | - | - | - |
| 1777214718 | 24.44° C | 36% | 1011.3 hPa | 0 mm | - | - | - |
| 1777211118 | 24.44° C | 35% | 1010.8 hPa | 0 mm | - | - | - |
| 1777208718 | 23.89° C | 34% | 1010.1 hPa | 0 mm | - | - | - |
| 1777207818 | 23.33° C | 35% | 1010 hPa | 0 mm | - | - | - |
| 1777206318 | 23.33° C | 36% | 1009.6 hPa | 0 mm | - | - | - |
| 1777205138 | 23.33° C | 36% | 1009.6 hPa | 0 mm | - | - | - |
| 1777204238 | 23.33° C | 36% | 1009.5 hPa | 0 mm | - | - | - |
| 1777203339 | 23.33° C | 36% | 1009.4 hPa | 0 mm | - | - | - |
| 1777203018 | 23.33° C | 36% | 1009.3 hPa | 0 mm | - | - | - |
| 1777202118 | 23.33° C | 36% | 1009.4 hPa | 0 mm | - | - | - |
* Rain latest hour (hover to see other rain measurements)
** Current wind speed in m/s (hover to see current wind gust speed)